FW4518 Weather Reports


time (UTC)temp
C
wind
direction
speed
KPH
gust
KPH
rain 1hr
cm
rain 24hr
cm
rain mn
cm
humidity
%
barometer
mb
20260505092654 8 0.0 0.0 0.00 0.00 0.00 77 1013.1
20260505091634 8 0.0 0.0 0.00 0.00 0.00 76 1013.0
20260505090714 9 0.0 0.0 0.00 0.00 0.00 73 1012.9
20260505085634 10 0.0 0.0 0.00 0.00 0.00 72 1012.9
20260505084634 10 0.0 0.0 0.00 0.00 0.00 69 1012.8
20260505083634 11 0.0 1.6 0.00 0.00 0.00 65 1012.7
20260505082634 11 0.0 1.6 0.00 0.00 0.00 67 1012.7
20260505081634 12 0.0 0.0 0.00 0.00 0.00 61 1012.7
20260505080634 13 266 0.0 3.2 0.00 0.00 0.00 57 1012.6
20260505075655 13 0.0 0.0 0.00 0.00 0.00 56 1012.6
20260505074635 15 353 0.0 4.8 0.00 0.00 0.00 55 1012.5
20260505073654 15 322 4.8 8.0 0.00 0.00 0.00 54 1012.4
20260505072634 12 230 1.6 3.2 0.00 0.00 0.00 58 1012.6
20260505071635 12 0.0 0.0 0.00 0.00 0.00 60 1012.5
20260505070635 13 0.0 1.6 0.00 0.00 0.00 54 1012.3
20260505065634 13 0.0 0.0 0.00 0.00 0.00 53 1012.2
20260505064714 13 0.0 0.0 0.00 0.00 0.00 56 1012.1
20260505063654 13 0.0 0.0 0.00 0.00 0.00 56 1012.0
20260505062634 16 256 1.6 3.2 0.00 0.00 0.00 47 1012.0
20260505061634 16 359 1.6 4.8 0.00 0.00 0.00 46 1012.0
20260505060634 16 29 3.2 8.0 0.00 0.00 0.00 45 1011.8
20260505055634 16 21 4.8 9.7 0.00 0.00 0.00 45 1011.8
20260505054635 16 13 3.2 9.7 0.00 0.00 0.00 45 1011.8
20260505053654 17 18 3.2 9.7 0.00 0.00 0.00 44 1011.8
20260505052634 17 19 1.6 6.4 0.00 0.00 0.00 43 1011.8
20260505051634 17 28 4.8 8.0 0.00 0.00 0.00 43 1011.7
20260505050654 17 21 4.8 11.3 0.00 0.00 0.00 43 1011.6
20260505041634 18 11 1.6 4.8 0.00 0.00 0.00 43 1011.3
20260505040654 18 19 3.2 4.8 0.00 0.00 0.00 42 1011.2
20260505035635 18 25 1.6 8.0 0.00 0.00 0.00 42 1010.9
20260505034634 19 5 6.4 11.3 0.00 0.00 0.00 41 1010.7
20260505033635 20 43 4.8 12.9 0.00 0.00 0.00 40 1010.5
20260505032654 20 35 6.4 12.9 0.00 0.00 0.00 38 1010.4
20260505031635 21 24 9.7 16.1 0.00 0.00 0.00 37 1010.2
20260505030635 21 26 12.9 20.9 0.00 0.00 0.00 35 1010.0
20260505025635 22 20 12.9 20.9 0.00 0.00 0.00 34 1009.8
20260505024635 22 68 11.3 22.5 0.00 0.00 0.00 34 1009.7
20260505023634 22 346 14.5 25.7 0.00 0.00 0.00 33 1009.6
20260505022635 23 23 11.3 19.3 0.00 0.00 0.00 33 1009.5
20260505021634 23 22 14.5 25.7 0.00 0.00 0.00 32 1009.5
20260505020634 23 33 12.9 22.5 0.00 0.00 0.00 32 1009.5
20260505015635 24 6 11.3 24.1 0.00 0.00 0.00 32 1009.4
20260505014655 24 47 11.3 19.3 0.00 0.00 0.00 33 1009.5
20260505013635 25 23 11.3 19.3 0.00 0.00 0.00 33 1009.5
20260505012635 25 356 8.0 16.1 0.00 0.00 0.00 33 1009.5
20260505011655 25 66 11.3 27.4 0.00 0.00 0.00 34 1009.5
20260505010655 26 354 12.9 27.4 0.00 0.00 0.00 33 1009.4
20260505005635 26 272 12.9 24.1 0.00 0.00 0.00 33 1009.4
20260505004635 26 52 12.9 24.1 0.00 0.00 0.00 35 1009.4
20260505003635 26 3 12.9 24.1 0.00 0.00 0.00 34 1009.5
20260505002635 26 225 12.9 20.9 0.00 0.00 0.00 34 1009.4
20260505001635 26 343 14.5 24.1 0.00 0.00 0.00 37 1009.5
20260505000635 27 18 8.0 16.1 0.00 0.00 0.00 34 1009.4
20260504235637 27 31 9.7 20.9 0.00 0.00 0.00 35 1009.4
20260504234655 26 2 11.3 17.7 0.00 0.00 0.00 36 1009.4
20260504233635 27 336 14.5 27.4 0.00 0.00 0.00 34 1009.4
20260504232635 27 351 11.3 20.9 0.00 0.00 0.00 34 1009.4
20260504231635 27 37 9.7 22.5 0.00 0.00 0.00 34 1009.4
20260504230655 27 17 11.3 24.1 0.00 0.00 0.00 34 1009.6
20260504225655 27 2 16.1 27.4 0.00 0.00 0.00 33 1009.8
20260504224637 27 349 9.7 17.7 0.00 0.00 0.00 33 1009.8
20260504223635 27 7 11.3 20.9 0.00 0.00 0.00 33 1010.0
20260504222655 27 33 12.9 22.5 0.00 0.00 0.00 33 1010.1
20260504221655 27 31 12.9 20.9 0.00 0.00 0.00 34 1010.1
20260504220635 27 66 12.9 24.1 0.00 0.00 0.00 33 1010.2
20260504215715 27 24 4.8 12.9 0.00 0.00 0.00 34 1010.3
20260504214635 26 360 8.0 16.1 0.00 0.00 0.00 36 1010.4
20260504213635 27 36 8.0 19.3 0.00 0.00 0.00 35 1010.4
20260504212735 26 47 9.7 24.1 0.00 0.00 0.00 36 1010.5
20260504211715 27 41 4.8 14.5 0.00 0.00 0.00 35 1010.5
20260504210635 27 60 6.4 17.7 0.00 0.00 0.00 34 1010.6
20260504205635 27 46 6.4 16.1 0.00 0.00 0.00 34 1010.7
20260504204635 27 18 11.3 19.3 0.00 0.00 0.00 33 1010.8
20260504203715 27 37 11.3 19.3 0.00 0.00 0.00 33 1010.9
20260504202636 26 15 6.4 12.9 0.00 0.00 0.00 33 1010.9
20260504201636 26 21 9.7 17.7 0.00 0.00 0.00 32 1011.1
20260504200635 25 39 11.3 20.9 0.00 0.00 0.00 34 1011.1
20260504195635 26 14 9.7 17.7 0.00 0.00 0.00 36 1011.2
20260504194635 25 33 9.7 19.3 0.00 0.00 0.00 36 1011.2
20260504193635 25 18 9.7 17.7 0.00 0.00 0.00 35 1011.4
20260504192635 25 11 9.7 19.3 0.00 0.00 0.00 37 1011.4
20260504191635 26 30 8.0 16.1 0.00 0.00 0.00 36 1011.5
20260504190635 25 25 6.4 14.5 0.00 0.00 0.00 38 1011.6
20260504185636 25 21 6.4 20.9 0.00 0.00 0.00 40 1011.7
20260504184636 25 21 9.7 20.9 0.00 0.00 0.00 43 1011.8
20260504183636 24 15 8.0 17.7 0.00 0.00 0.00 43 1011.9
20260504182636 23 10 9.7 19.3 0.00 0.00 0.00 44 1012.0
20260504181636 23 25 9.7 17.7 0.00 0.00 0.00 45 1012.1
20260504180636 23 33 8.0 16.1 0.00 0.00 0.00 44 1012.2
20260504175635 23 346 8.0 16.1 0.00 0.00 0.00 44 1012.2
20260504174635 23 34 11.3 17.7 0.00 0.00 0.00 45 1012.2
20260504173655 23 29 8.0 17.7 0.00 0.00 0.00 45 1012.1
20260504172636 22 293 3.2 8.0 0.00 0.00 0.00 46 1012.2
20260504171636 22 18 1.6 6.4 0.00 0.00 0.00 45 1012.3
20260504170636 21 160 3.2 9.7 0.00 0.00 0.00 46 1012.4
20260504150636 13 151 6.4 9.7 0.00 0.00 0.00 66 1012.7
20260504140636 8 204 0.0 3.2 0.00 0.00 0.00 79 1012.9
20260504130636 5 0.0 0.0 0.00 0.00 0.00 90 1012.7
20260504110636 6 0.0 0.0 0.00 0.00 0.00 86 1012.7